Back to catalog

STARLINK-37351

AliveCommunicationsSSO
NORAD 68742·PAYLOAD·🇺🇸 United States

Launched Apr 15, 2026 from Vandenberg Space Force Base

Loading…

Next Passes (next 24 hours)

TLE

FreshSource: CelesTrak SupGP

Epoch: Sep 14, 2026, 15:29 UTC

1 68742C 26082Q   26257.64562500 -.00114500  00000+0 -35559-2 0  2573
2 68742  97.2846 119.8781 0001938  89.7378  73.4688 15.33481785    15

Track STARLINK-37351 in real time with AllMySat

Download on the App Store